Weather in Goragorsk

Russia / Chechen Republic     43°30′04″N   45°05′00″E
temp.,
°C
wind,
m/s
gust,
m/s
humid.,
%
clouds,
%
prec.,
mm/h
press.,
hPa
HPBL,
m
14 august, sun
sun1400:00+22nne11490 0.0 100811
03:00+21w11550 0.0 100713
06:00+21w23540 0.0 100779
09:00+28nw21370 0.0 1006596
12:00+33nne33270 0.0 10041411
15:00+36nne33230 0.0 10021840
18:00+35n35210 0.0 1002286
21:00+25e22410 0.0 100417
15 august, mon
mon1500:00+24ese01490 0.0 100411
03:00+23wnw22530 0.0 100415
06:00+23w22543 0.0 100541
09:00+29n32350 0.0 1005616
12:00+35n32260 0.0 10041266
15:00+38ne33190 0.0 10022011
18:00+37ene57170 0.0 1002461
21:00+27ene22350 0.0 100420
16 august, tue
tue1600:00+24ne01460 0.0 100511
03:00+23w33480 0.0 100631
06:00+23w23470 0.0 100775
09:00+30wnw67350 0.0 1008757
12:00+35wnw55250 0.0 10071475
15:00+38wnw33200 0.0 10062205
18:00+36nw23230 0.0 1006123
21:00+30sw22330 0.0 100813
17 august, wed
wed1700:00+27w34420 0.0 100951
03:00+25w34480 0.0 100965
06:00+25wsw24490 0.0 1010102
09:00+32nw44290 0.0 1009819
12:00+37n32230 0.0 10071846
15:00+39nne33180 0.0 10052691
18:00+38nne35200 0.0 1004268
21:00+30se22310 0.0 100511
18 august, thu
thu1800:00+27ssw22370 0.0 100512
03:00+26wsw22335 0.0 100516
06:00+26wsw22300 0.0 100638
09:00+32wnw54301 0.0 1006735
12:00+37nnw33235 0.0 10042075
15:00+40n441994 0.0 10022868
18:00+35ene77220 0.0 1003527
21:00+26se2238100 0.0 100413